GW6861 Weather Reports


time (UTC)temp
C
wind
direction
speed
KPH
gust
KPH
rain 1hr
cm
rain 24hr
cm
rain mn
cm
humidity
%
barometer
mb
20260507061003 8 0 0.0 0.0 0.00 0.74 0.00 90 1006.7
20260507060503 8 0 0.0 0.0 0.00 0.74 0.00 90 1006.9
20260507060005 8 0 0.0 0.0 0.00 0.74 0.00 90 1006.8
20260507055503 8 0 0.0 0.0 0.00 0.74 0.00 90 1006.4
20260507055003 8 0 0.0 0.0 0.00 0.74 0.00 91 1006.6
20260507054503 8 0 0.0 0.0 0.00 0.74 0.00 91 1006.7
20260507054003 8 0 0.0 0.0 0.00 0.74 0.00 91 1006.7
20260507053503 8 0 0.0 0.0 0.00 0.74 0.00 90 1006.8
20260507053005 8 0 0.0 0.0 0.00 0.74 0.00 90 1006.7
20260507052713 8 0 0.0 0.0 0.00 0.74 0.00 90 1006.8
20260507052003 8 0 0.0 0.0 0.00 0.74 0.00 90 1006.7
20260507051713 8 0 0.0 0.0 0.00 0.74 0.00 90 1006.7
20260507051005 8 0 0.0 0.0 0.00 0.74 0.00 89 1006.6
20260507050503 8 0 0.0 0.0 0.00 0.74 0.00 90 1006.3
20260507050003 8 0 0.0 0.0 0.00 0.74 0.00 90 1006.5
20260507045713 8 69 0.0 1.6 0.00 0.74 0.00 89 1006.4
20260507045214 8 69 0.0 1.6 0.00 0.74 0.00 89 1006.3
20260507044505 8 0 0.0 0.0 0.00 0.74 0.00 90 1006.6
20260507044003 8 0 0.0 0.0 0.00 0.74 0.00 90 1006.5
20260507043503 8 0 0.0 0.0 0.00 0.74 0.00 90 1006.5
20260507043003 8 0 0.0 0.0 0.00 0.74 0.00 89 1006.5
20260507042503 8 351 0.0 3.2 0.00 0.74 0.00 88 1006.4
20260507042005 8 348 0.0 6.4 0.00 0.74 0.00 89 1006.4
20260507041503 8 321 1.6 14.5 0.00 0.74 0.00 89 1006.8
20260507041003 8 323 3.2 14.5 0.00 0.74 0.00 88 1007.0
20260507040712 8 323 3.2 14.5 0.00 0.74 0.00 89 1006.7
20260507040003 8 302 0.0 11.3 0.00 0.74 0.00 90 1006.8
20260507035714 8 260 0.0 4.8 0.00 0.74 0.74 90 1006.7
20260507035213 9 326 0.0 6.4 0.03 0.74 0.74 90 1006.6
20260507034503 9 349 0.0 6.4 0.08 0.74 0.74 90 1006.6
20260507034003 9 183 0.0 6.4 0.10 0.74 0.74 91 1006.4
20260507033505 9 181 0.0 6.4 0.10 0.74 0.74 91 1006.4
20260507033004 10 354 0.0 6.4 0.10 0.74 0.74 91 1006.3
20260507032503 10 354 0.0 6.4 0.10 0.74 0.74 92 1006.3
20260507032003 10 0 0.0 0.0 0.13 0.74 0.74 92 1006.3
20260507031503 10 50 0.0 3.2 0.13 0.74 0.74 92 1006.3
20260507031005 10 7 0.0 3.2 0.13 0.74 0.74 92 1006.2
20260507030503 10 350 0.0 3.2 0.13 0.74 0.74 91 1006.3
20260507030003 10 220 0.0 6.4 0.13 0.74 0.74 91 1006.4
20260507025503 10 265 0.0 8.0 0.13 0.74 0.74 91 1006.4
20260507025215 10 285 1.6 9.7 0.10 0.71 0.71 90 1006.5
20260507024503 11 317 1.6 14.5 0.05 0.66 0.66 90 1006.5
20260507024003 11 344 3.2 19.3 0.03 0.64 0.64 89 1006.4
20260507023503 11 343 4.8 19.3 0.05 0.64 0.64 89 1006.3
20260507023005 11 323 3.2 11.3 0.08 0.64 0.64 90 1006.2
20260507022503 11 357 1.6 9.7 0.08 0.64 0.64 90 1006.1
20260507022003 11 324 0.0 8.0 0.08 0.61 0.61 91 1005.9
20260507021714 11 323 0.0 8.0 0.10 0.61 0.61 91 1005.9
20260507021005 12 288 0.0 8.0 0.13 0.61 0.61 91 1005.8
20260507020503 12 253 0.0 8.0 0.15 0.61 0.61 91 1005.6
20260507020003 12 331 0.0 11.3 0.18 0.61 0.61 91 1005.5
20260507015503 12 336 0.0 11.3 0.23 0.61 0.61 91 1005.4
20260507015005 12 11 0.0 3.2 0.23 0.61 0.61 92 1005.4
20260507014714 12 114 0.0 0.0 0.23 0.61 0.61 92 1005.4
20260507014212 12 0 0.0 0.0 0.23 0.61 0.61 92 1005.3
20260507013503 12 359 0.0 4.8 0.20 0.58 0.58 91 1005.1
20260507013003 12 359 0.0 4.8 0.18 0.56 0.56 91 1005.1
20260507012505 13 208 0.0 6.4 0.18 0.56 0.56 92 1005.1
20260507012003 13 252 0.0 6.4 0.15 0.53 0.53 91 1005.1
20260507011503 13 326 1.6 8.0 0.13 0.51 0.51 90 1005.1
20260507010505 14 350 1.6 9.7 0.08 0.46 0.46 90 1004.8
20260507010003 14 97 0.0 3.2 0.05 0.43 0.43 90 1004.7
20260507005713 15 0 0.0 0.0 0.03 0.41 0.41 91 1004.7
20260507005214 15 0 0.0 0.0 0.00 0.38 0.38 90 1004.4
20260507004505 15 0 0.0 0.0 0.00 0.38 0.38 90 1004.2
20260507004003 15 0 0.0 0.0 0.00 0.38 0.38 90 1004.1
20260507003508 15 0 0.0 0.0 0.00 0.38 0.38 90 1004.1
20260507003005 15 0 0.0 0.0 0.00 0.38 0.38 89 1004.0
20260507002713 15 0 0.0 0.0 0.00 0.38 0.38 89 1003.9
20260507002003 15 0 0.0 0.0 0.00 0.38 0.38 89 1004.0
20260507001503 15 0 0.0 0.0 0.00 0.38 0.38 88 1003.9
20260507001003 15 0 0.0 0.0 0.00 0.38 0.38 88 1004.0
20260507000713 15 211 0.0 1.6 0.00 0.38 0.38 89 1003.9
20260507000005 15 207 0.0 4.8 0.00 0.38 0.38 88 1003.8
20260506235503 15 207 0.0 4.8 0.00 0.38 0.38 89 1003.8
20260506235003 15 0 0.0 0.0 0.00 0.38 0.38 89 1003.7
20260506234503 15 0 0.0 0.0 0.00 0.38 0.38 89 1003.6
20260506234003 15 0 0.0 0.0 0.00 0.38 0.38 89 1003.6
20260506233505 15 0 0.0 0.0 0.00 0.38 0.38 89 1003.6
20260506233214 15 225 0.0 3.2 0.00 0.38 0.38 89 1003.5
20260506232713 15 206 0.0 3.2 0.00 0.38 0.38 88 1003.6
20260506232214 15 168 0.0 1.6 0.00 0.38 0.38 88 1003.6
20260506231504 15 210 1.6 14.5 0.00 0.38 0.38 88 1003.7
20260506231003 15 215 1.6 14.5 0.00 0.38 0.38 87 1003.7
20260506230503 15 225 0.0 6.4 0.00 0.38 0.38 88 1003.7
20260506230003 15 202 1.6 9.7 0.00 0.38 0.38 88 1003.7
20260506225505 15 199 1.6 9.7 0.00 0.38 0.38 87 1003.7
20260506225003 15 206 0.0 9.7 0.00 0.38 0.38 87 1003.7
20260506224503 15 209 0.0 9.7 0.00 0.38 0.38 87 1003.7
20260506224003 15 182 1.6 12.9 0.00 0.38 0.38 87 1003.7
20260506223503 15 186 1.6 12.9 0.00 0.38 0.38 87 1003.7
20260506223005 15 207 1.6 8.0 0.00 0.38 0.38 87 1003.7
20260506222712 15 201 1.6 11.3 0.00 0.38 0.38 87 1003.7
20260506222003 15 190 1.6 11.3 0.00 0.38 0.38 87 1003.9
20260506221504 16 190 1.6 9.7 0.00 0.38 0.38 87 1003.9
20260506221003 16 201 1.6 9.7 0.00 0.38 0.38 86 1003.8
20260506220505 16 210 1.6 9.7 0.00 0.38 0.38 86 1003.9
20260506220003 16 186 1.6 9.7 0.00 0.38 0.38 86 1003.9
20260506215503 16 180 1.6 8.0 0.00 0.38 0.38 86 1004.0
20260506215003 16 180 0.0 8.0 0.00 0.38 0.38 86 1003.9
20260506214505 16 202 1.6 12.9 0.00 0.38 0.38 86 1003.9
20260506214003 16 213 1.6 12.9 0.00 0.38 0.38 86 1003.9
20260506213503 16 212 0.0 11.3 0.00 0.38 0.38 87 1003.9
20260506213003 16 214 1.6 12.9 0.00 0.38 0.38 86 1003.9
20260506212505 16 204 1.6 12.9 0.00 0.38 0.38 86 1003.9
20260506212003 16 210 1.6 17.7 0.00 0.38 0.38 88 1004.0
20260506211503 16 222 0.0 17.7 0.00 0.38 0.38 88 1004.0
20260506211003 16 203 0.0 6.4 0.00 0.38 0.38 89 1004.1
20260506210505 16 157 0.0 4.8 0.00 0.38 0.38 89 1004.1
20260506210003 16 156 1.6 14.5 0.03 0.38 0.38 89 1004.1
20260506205503 16 189 1.6 14.5 0.05 0.38 0.38 89 1004.1
20260506205003 16 201 3.2 16.1 0.05 0.38 0.38 89 1004.2
20260506204503 16 203 4.8 20.9 0.08 0.38 0.38 89 1004.2
20260506204215 16 207 1.6 20.9 0.08 0.38 0.38 89 1004.2
20260506203503 16 270 0.0 3.2 0.10 0.38 0.38 91 1004.2
20260506203003 16 221 0.0 4.8 0.13 0.38 0.38 90 1004.2
20260506202714 16 213 0.0 4.8 0.13 0.38 0.38 90 1004.2
20260506202003 16 200 0.0 11.3 0.15 0.38 0.38 91 1004.3
20260506201715 16 197 1.6 16.1 0.15 0.38 0.38 90 1004.3
20260506201003 16 190 1.6 17.7 0.15 0.38 0.38 90 1004.2
20260506200503 16 196 0.0 11.3 0.15 0.38 0.38 91 1004.3
20260506200003 16 192 0.0 6.4 0.15 0.36 0.36 90 1004.3
20260506195505 16 231 0.0 3.2 0.13 0.33 0.33 91 1004.5
20260506195005 16 186 0.0 9.7 0.13 0.33 0.33 91 1004.5
20260506194713 16 204 0.0 12.9 0.13 0.33 0.33 91 1004.6
20260506194212 16 237 0.0 12.9 0.10 0.30 0.30 91 1004.7
20260506193505 16 0 0.0 0.0 0.10 0.28 0.28 91 1004.8
20260506193003 16 0 0.0 0.0 0.08 0.25 0.25 90 1004.7
20260506192713 16 0 0.0 0.0 0.08 0.25 0.25 90 1004.8
20260506192005 16 233 0.0 3.2 0.08 0.23 0.23 91 1004.9
20260506191713 16 233 0.0 3.2 0.08 0.23 0.23 91 1004.9
20260506191214 16 0 0.0 0.0 0.08 0.23 0.23 90 1004.9
20260506190505 16 0 0.0 0.0 0.10 0.23 0.23 90 1004.8
20260506190003 16 0 0.0 0.0 0.08 0.20 0.20 89 1004.7
20260506185503 16 0 0.0 0.0 0.08 0.20 0.20 89 1004.7
20260506185005 16 81 0.0 3.2 0.10 0.20 0.20 90 1004.9
20260506184503 16 81 0.0 3.2 0.10 0.20 0.20 90 1005.2
20260506184214 16 200 0.0 3.2 0.13 0.20 0.20 90 1005.4
20260506183505 16 216 1.6 8.0 0.10 0.18 0.18 89 1005.5
20260506183003 16 212 1.6 8.0 0.13 0.18 0.18 89 1005.6
20260506182715 16 208 0.0 8.0 0.13 0.18 0.18 90 1005.7
20260506182005 16 206 0.0 6.4 0.13 0.15 0.15 89 1006.0
20260506181503 16 242 0.0 4.8 0.13 0.15 0.15 89 1006.0
20260506181003 16 241 0.0 4.8 0.15 0.15 0.15 89 1005.9
20260506180505 16 204 0.0 11.3 0.13 0.13 0.13 89 1005.9
20260506180004 16 213 1.6 11.3 0.13 0.13 0.13 88 1006.1
20260506175503 16 219 0.0 6.4 0.13 0.13 0.13 88 1006.1
20260506175005 16 201 0.0 4.8 0.10 0.10 0.10 88 1006.2
20260506174503 16 213 0.0 4.8 0.10 0.10 0.10 87 1006.3
20260506174003 16 213 0.0 4.8 0.08 0.08 0.08 86 1006.4
20260506173504 16 210 0.0 6.4 0.08 0.08 0.08 84 1006.4
20260506173003 16 220 0.0 6.4 0.05 0.05 0.05 85 1006.5
20260506172503 16 225 0.0 3.2 0.03 0.03 0.03 83 1006.4
20260506172003 17 213 0.0 14.5 0.03 0.03 0.03 80 1006.4
20260506171505 17 210 0.0 14.5 0.03 0.03 0.03 79 1006.4
20260506171003 17 205 1.6 11.3 0.00 0.00 0.00 78 1006.3
20260506170503 17 205 1.6 11.3 0.00 0.00 0.00 74 1006.3
20260506170005 18 204 0.0 11.3 0.00 0.00 0.00 74 1006.3
20260506165503 18 232 0.0 8.0 0.00 0.00 0.00 72 1006.2
20260506165003 19 205 1.6 12.9 0.00 0.00 0.00 69 1006.3
20260506164504 19 199 1.6 12.9 0.00 0.00 0.00 67 1006.1
20260506164213 20 197 1.6 9.7 0.00 0.00 0.00 66 1006.1
20260506163508 20 215 1.6 19.3 0.00 0.00 0.00 68 1006.2
20260506163003 20 224 3.2 19.3 0.00 0.00 0.00 65 1006.3
20260506162714 20 226 1.6 19.3 0.00 0.00 0.00 67 1006.3
20260506162003 20 216 1.6 9.7 0.00 0.00 0.00 66 1006.5
20260506161505 20 210 0.0 9.7 0.00 0.00 0.00 66 1006.5
20260506161003 20 207 0.0 8.0 0.00 0.00 0.00 66 1006.7
20260506160714 20 209 0.0 8.0 0.00 0.00 0.00 65 1006.6
20260506160003 19 201 1.6 11.3 0.00 0.00 0.00 69 1006.7
20260506155505 19 206 1.6 11.3 0.00 0.00 0.00 67 1006.8
20260506155003 19 240 0.0 6.4 0.00 0.00 0.00 69 1007.0
20260506154503 19 258 0.0 6.4 0.00 0.00 0.00 69 1007.1
20260506154003 19 205 0.0 4.8 0.00 0.00 0.00 68 1007.1
20260506153505 18 192 0.0 6.4 0.00 0.00 0.00 70 1007.1
20260506153213 18 209 1.6 12.9 0.00 0.00 0.00 68 1007.2
20260506152503 19 211 3.2 20.9 0.00 0.00 0.00 67 1007.3
20260506152003 19 219 3.2 20.9 0.00 0.00 0.00 66 1007.4
20260506151714 19 236 1.6 14.5 0.00 0.00 0.00 65 1007.5
20260506151005 19 199 0.0 6.4 0.00 0.00 0.00 67 1007.4
20260506150713 19 205 0.0 6.4 0.00 0.00 0.00 68 1007.4
20260506150003 19 208 0.0 6.4 0.00 0.00 0.00 67 1007.4
20260506145503 19 212 1.6 11.3 0.00 0.00 0.00 68 1007.3
20260506145005 19 217 1.6 11.3 0.00 0.00 0.00 68 1007.1
20260506144503 18 212 1.6 11.3 0.00 0.00 0.00 70 1007.2
20260506144003 18 202 0.0 8.0 0.00 0.00 0.00 68 1007.3
20260506143503 18 228 0.0 6.4 0.00 0.00 0.00 68 1007.5
20260506143003 18 183 0.0 6.4 0.00 0.00 0.00 68 1007.4
20260506142503 19 241 0.0 8.0 0.00 0.00 0.00 69 1007.3
20260506142214 18 238 1.6 8.0 0.00 0.00 0.00 68 1007.1
20260506141503 19 207 1.6 6.4 0.00 0.00 0.00 68 1007.1
20260506141008 19 194 1.6 11.3 0.00 0.00 0.00 68 1007.1
20260506140503 18 212 1.6 17.7 0.00 0.00 0.00 71 1007.1
20260506140214 18 212 1.6 17.7 0.00 0.00 0.00 70 1007.0
20260506135715 18 181 1.6 14.5 0.00 0.00 0.00 69 1007.0
20260506135214 18 183 1.6 14.5 0.00 0.00 0.00 70 1006.9
20260506134503 18 199 0.0 8.0 0.00 0.00 0.00 71 1006.9
20260506134004 18 194 0.0 8.0 0.00 0.00 0.00 71 1007.1
20260506133503 18 231 0.0 4.8 0.00 0.00 0.00 72 1007.1
20260506133003 17 231 0.0 6.4 0.00 0.00 0.00 73 1007.3
20260506132503 17 213 1.6 9.7 0.00 0.00 0.00 73 1007.3
20260506132005 17 202 1.6 16.1 0.00 0.00 0.00 74 1007.4
20260506131503 17 195 1.6 16.1 0.00 0.00 0.00 74 1007.5
20260506131003 17 196 3.2 25.7 0.00 0.00 0.00 74 1007.5
20260506130504 17 197 1.6 25.7 0.00 0.00 0.00 74 1007.6
20260506130004 17 205 1.6 12.9 0.00 0.00 0.00 74 1007.7
20260506125503 17 202 1.6 12.9 0.00 0.00 0.00 74 1007.6
20260506125216 17 202 1.6 12.9 0.00 0.00 0.00 74 1007.6
20260506124503 17 194 0.0 8.0 0.00 0.00 0.00 74 1007.6
20260506124003 17 205 0.0 8.0 0.00 0.00 0.00 73 1007.6
20260506123505 17 233 0.0 6.4 0.00 0.00 0.00 73 1007.6
20260506123003 17 228 1.6 12.9 0.00 0.00 0.00 73 1007.4
20260506122503 17 223 1.6 12.9 0.00 0.00 0.00 73 1007.6
20260506122006 17 161 0.0 6.4 0.00 0.00 0.00 74 1007.4
20260506121503 17 143 0.0 6.4 0.00 0.00 0.00 74 1007.5
20260506121003 16 160 0.0 4.8 0.00 0.00 0.00 75 1007.6
20260506120505 16 150 0.0 4.8 0.00 0.00 0.00 75 1007.6
20260506120003 16 230 0.0 1.6 0.00 0.00 0.00 75 1007.7
20260506115503 16 237 0.0 4.8 0.00 0.00 0.00 76 1007.7
20260506115004 16 239 0.0 4.8 0.00 0.00 0.00 76 1007.9
20260506114503 16 37 0.0 0.0 0.00 0.00 0.00 77 1007.8
20260506114003 15 37 0.0 0.0 0.00 0.00 0.00 78 1007.7
20260506113505 15 0 0.0 0.0 0.00 0.00 0.00 79 1007.8
20260506113003 15 0 0.0 0.0 0.00 0.00 0.00 81 1007.9
20260506112503 15 242 0.0 3.2 0.00 0.00 0.00 79 1008.0
20260506112005 15 242 0.0 3.2 0.00 0.00 0.00 78 1008.0
20260506111503 15 0 0.0 0.0 0.00 0.00 0.00 78 1007.9
20260506111003 15 0 0.0 0.0 0.00 0.00 0.00 80 1008.1
20260506110505 14 0 0.0 0.0 0.00 0.00 0.00 80 1007.9
20260506110005 14 0 0.0 0.0 0.00 0.00 0.00 79 1007.8
20260506105503 14 0 0.0 0.0 0.00 0.00 0.00 79 1008.0
20260506105004 14 0 0.0 0.0 0.00 0.00 0.00 79 1007.9
20260506104503 14 0 0.0 0.0 0.00 0.00 0.00 79 1007.9
20260506104003 14 0 0.0 0.0 0.00 0.00 0.00 80 1007.9
20260506103506 14 0 0.0 0.0 0.00 0.00 0.00 79 1008.1
20260506103003 14 0 0.0 0.0 0.00 0.00 0.00 79 1008.0
20260506102503 14 0 0.0 0.0 0.00 0.00 0.00 79 1008.0
20260506102005 13 0 0.0 0.0 0.00 0.00 0.00 79 1008.2
20260506101503 14 0 0.0 0.0 0.00 0.00 0.00 79 1008.1
20260506101213 14 0 0.0 0.0 0.00 0.00 0.00 79 1007.9
20260506100505 14 190 0.0 3.2 0.00 0.00 0.00 78 1007.9
20260506100004 13 0 0.0 0.0 0.00 0.00 0.00 80 1008.0
20260506095714 13 0 0.0 0.0 0.00 0.00 0.00 80 1007.9
20260506095005 13 0 0.0 0.0 0.00 0.00 0.00 80 1007.9
20260506094503 13 0 0.0 0.0 0.00 0.00 0.00 80 1007.8
20260506094003 13 0 0.0 0.0 0.00 0.00 0.00 79 1007.9
20260506093504 13 0 0.0 0.0 0.00 0.00 0.00 79 1007.9
20260506093212 13 0 0.0 0.0 0.00 0.00 0.00 79 1008.0
20260506092503 13 0 0.0 0.0 0.00 0.00 0.00 78 1007.9
20260506092214 13 0 0.0 0.0 0.00 0.00 0.00 78 1007.8
20260506091503 13 0 0.0 0.0 0.00 0.00 0.00 78 1008.0
20260506091003 13 0 0.0 0.0 0.00 0.00 0.00 78 1007.9
20260506090505 13 0 0.0 0.0 0.00 0.00 0.00 79 1008.0
20260506090003 13 0 0.0 0.0 0.00 0.00 0.00 77 1008.0
20260506085503 13 0 0.0 0.0 0.00 0.00 0.00 77 1008.0
20260506085006 14 0 0.0 0.0 0.00 0.00 0.00 76 1008.0
20260506084503 14 0 0.0 0.0 0.00 0.00 0.00 76 1008.0
20260506084003 14 0 0.0 0.0 0.00 0.00 0.00 76 1007.9
20260506083505 14 0 0.0 0.0 0.00 0.00 0.00 76 1008.0
20260506083003 14 0 0.0 0.0 0.00 0.00 0.00 76 1008.0
20260506082503 14 0 0.0 0.0 0.00 0.00 0.00 75 1008.0
20260506082004 14 0 0.0 0.0 0.00 0.00 0.00 74 1008.0
20260506081503 15 0 0.0 0.0 0.00 0.00 0.00 73 1008.1
20260506081003 15 0 0.0 0.0 0.00 0.00 0.00 71 1008.0
20260506080505 15 0 0.0 0.0 0.00 0.00 0.00 72 1008.1
20260506073505 16 0 0.0 0.0 0.00 0.00 0.00 70 1008.0
20260506073003 16 332 0.0 3.2 0.00 0.00 0.00 69 1008.0
20260506072503 16 332 0.0 3.2 0.00 0.00 0.00 69 1008.0
20260506072005 16 0 0.0 0.0 0.00 0.00 0.00 68 1008.0
20260506071503 16 208 0.0 1.6 0.00 0.00 0.00 69 1008.0
20260506071003 16 208 0.0 1.6 0.00 0.00 0.00 68 1008.0
20260506070715 16 208 0.0 1.6 0.00 0.00 0.00 68 1008.0
20260506062503 17 178 0.0 6.4 0.00 0.00 0.00 66 1007.7
20260506062003 17 216 0.0 6.4 0.00 0.00 0.00 65 1007.7
20260506061503 17 238 0.0 6.4 0.00 0.00 0.00 65 1007.5
20260506061215 17 181 0.0 6.4 0.00 0.00 0.00 65 1007.6